Voltar ao catálogo

ONEWEB-0017

AtivoComunicaçõesPO
NORAD 45132·PAYLOAD·🇬🇧 United Kingdom

Lançado Feb 6, 2020 de Baikonur Cosmodrome

Loading…

Próximas Passagens (próximas 24 horas)

TLE

AtualizadoSource: CelesTrak SupGP

Época: Sep 14, 2026, 21:30 UTC

1 45132C 20008B   26257.89634676 -.00000154  00000+0 -44036-3 0  2574
2 45132  87.8904  18.4065 0001588 101.7584  10.5784 13.10371437    11

Acompanhe ONEWEB-0017 em tempo real com AllMySat

Download on the App Store